Regional Weather Roundup
Issued by NWS

Home | Current Version | Previous Version | Text Only | Print | Product List | Glossary Off
Versions: 1 2 3 4 5 6 7 8 9 10 11 12 13 14 15 16 17 18 19 20 21 22 23 24 25 26 27 28 29 30 31 32 33 34 35 36 37 38 39 40 41 42 43 44 45 46 47 48 49 50

000
ASUS43 KLMK 021110
RWRKY
KENTUCKY REGIONAL WEATHER ROUNDUP
NATIONAL WEATHER SERVICE LOUISVILLE KY
700 AM EDT WED SEP 02 2015

NOTE "FAIR" INDICATES FEW OR NO CLOUDS BELOW 12,000 FEET
WITH NO SIGNIFICANT WEATHER AND/OR OBSTRUCTIONS TO VISIBILITY.

KYZ001>023-026-027-061>063-070>075-021200-
WESTERN AND SOUTH CENTRAL KENTUCKY

CITY           SKY/WX    TMP DP  RH WIND       PRES   REMARKS
PADUCAH        PTCLDY    69  67  93 CALM      30.09R
HENDERSON      CLEAR     64  63  94 CALM      30.10R
OWENSBORO      PTCLDY    67  66  96 S3        30.12R FOG
HOPKINSVILLE   CLOUDY    71  67  88 CALM      30.11R
BOWLING GREEN  CLEAR     68  66  93 CALM      30.12S FOG
GLASGOW        MOCLDY    64  64 100 CALM      30.13R FOG
$$

KYZ024-025-028>034-038-045-046-053-021200-
NORTH CENTRAL KENTUCKY

CITY           SKY/WX    TMP DP  RH WIND       PRES   REMARKS
LOUISVILLE/SDF CLEAR     71  68  90 SE5       30.11R
LOUISVILLE/LOU CLEAR     69  67  93 CALM      30.12R
FORT KNOX      CLEAR     64  64 100 CALM      30.12R FOG
$$

KYZ035>037-039>044-047>052-055>060-089>105-021200-
NORTHEAST KENTUCKY

CITY           SKY/WX    TMP DP  RH WIND       PRES   REMARKS
LEXINGTON      CLEAR     67  64  90 CALM      30.14R
COVINGTON      CLEAR     65  64  97 S3        30.13R FOG
FRANKFORT      CLEAR     66  63  90 CALM      30.12
$$

KYZ054-064>069-076>088-106>120-021200-
SOUTHEAST KENTUCKY

CITY           SKY/WX    TMP DP  RH WIND       PRES   REMARKS
JACKSON        PTCLDY    68  66  93 CALM      30.15R FOG
LONDON         PTCLDY    66  62  87 CALM      30.15R
SOMERSET       CLEAR     63  63 100 CALM      30.15S FOG
MIDDLESBORO    FOG       65  65 100 CALM      30.17R VSB 1
MONTICELLO     MOSUNNY   63  63 100 CALM      30.17R FOG
$$



USA.gov is the U.S. government's official web portal to all federal, state and local government web resources and services.